Theta_e
344 343 344 346 348 350 351 351 348 349 350 354 351 352 351 351 352 350 355 357 354 354 351 351 355 352 351 353 345 351 358 357 354 354 351 351 349 352 354 354 349 349 347
344 344 344 346 348 350 351 352 353 352 351 354 354 353 351 350 351 352 354 355 354 357 355 350 352 352 346 355 356 357 355 359 354 355 354 349 347 349 356 356 353 353 347
345 344 343 345 347 349 350 352 353 354 347 355 354 353 353 352 353 353 355 358 354 356 358 354 347 350 351 350 334 354 361 354 354 356 355 352 352 352 347 353 356 354 351
346 344 344 345 346 348 349 351 350 353 351 348 355 354 352 352 350 350 353 352 357 358 355 354 352 356 356 349 352 359 348 355 353 357 355 356 355 353 351 349 351 353 351
346 344 344 344 345 346 348 349 350 351 354 352 346 355 352 354 353 353 357 357 360 358 348 355 358 358 355 360 357 351 352 350 357 355 354 355 357 355 352 348 347 351 350
346 344 343 343 344 344 346 348 349 349 348 354 348 353 356 350 352 352 352 353 352 351 354 354 357 357 353 351 359 359 355 355 351 354 353 355 356 356 353 351 350 347 350
346 345 344 344 344 344 345 347 349 349 346 345 343 344 348 355 350 353 355 354 353 352 354 358 357 357 358 362 363 354 354 353 357 358 354 352 359 354 355 348 352 347 350
346 345 345 344 343 344 345 346 350 349 346 341 342 343 342 343 344 346 350 352 352 350 351 354 353 354 353 354 357 360 359 360 358 357 353 354 352 357 354 355 353 351 347
344 344 344 345 345 345 345 346 350 349 343 341 341 341 342 343 352 356 356 357 351 351 350 351 350 354 349 351 355 359 359 359 358 358 357 357 357 357 358 354 352 351 349
344 345 345 346 346 346 346 347 348 349 347 345 343 342 341 342 344 355 355 359 358 359 357 357 359 357 353 352 356 358 358 358 357 360 359 357 356 352 358 355 354 351 344
346 346 346 346 346 346 347 347 349 353 356 357 357 354 350 348 350 349 349 351 351 350 352 351 350 350 349 351 354 354 354 353 352 351 353 353 356 355 354 355 353 348 349
349 348 347 347 346 347 347 348 350 353 355 357 357 356 356 356 358 359 359 360 361 360 360 358 356 352 351 351 355 358 356 357 357 359 359 357 357 356 356 352 350 352 346
359 362 360 358 357 354 352 352 351 354 355 356 356 358 358 359 359 360 361 360 356 356 356 357 361 362 362 357 354 359 361 360 358 357 356 354 356 358 357 352 350 344 348
363 360 358 358 360 362 361 359 358 358 358 359 361 361 361 361 361 358 356 355 362 362 362 364 363 362 362 362 361 360 362 361 360 360 358 356 355 355 354 352 350 345 346
358 355 352 349 350 352 352 352 354 359 360 360 355 347 354 356 357 361 360 360 359 360 363 364 364 365 363 365 365 364 363 362 360 360 359 360 358 358 356 354 350 347 346
350 348 346 344 342 341 342 341 342 342 341 339 333 327 327 327 332 329 323 324 324 324 324 326 339 357 360 357 357 359 357 348 344 349 352 357 359 358 356 356 349 348 346
347 345 343 341 340 339 339 337 334 329 327 329 328 331 332 332 331 342 336 336 330 329 328 327 326 325 325 324 323 324 324 323 322 321 322 335 355 358 357 356 351 346 345
344 342 341 340 337 333 330 330 329 329 336 337 336 337 333 334 332 328 326 326 325 324 323 323 323 325 326 326 326 324 322 321 320 323 326 352 348 356 359 358 354 347 344
342 340 339 338 336 335 332 333 334 331 330 330 330 327 324 322 320 317 317 316 314 315 315 314 315 318 321 320 314 315 315 315 315 318 320 331 349 350 355 357 356 349 345
340 338 337 336 336 334 333 333 332 331 331 330 328 326 321 315 313 312 312 312 312 312 313 312 312 312 312 312 312 312 312 313 315 318 324 338 345 355 357 356 357 350 346
338 335 334 333 333 331 329 327 327 327 326 323 318 314 313 312 313 317 317 316 315 315 314 314 314 314 314 314 314 317 324 326 329 329 329 327 326 333 342 355 352 351 346
331 331 330 328 327 326 327 327 328 328 324 319 316 316 317 317 317 318 318 319 320 322 323 324 325 325 326 326 326 328 329 329 329 330 330 333 328 333 347 349 352 351 345
330 327 326 326 326 327 327 328 328 327 327 327 326 325 324 324 324 325 325 325 327 328 328 328 329 329 329 328 327 328 328 328 332 332 336 334 339 341 347 349 350 348 345
326 325 325 326 326 326 327 327 327 326 325 326 326 326 325 325 325 326 327 327 327 328 328 329 329 329 329 329 329 331 333 333 337 338 337 332 331 329 331 346 348 345 345
325 325 325 325 326 326 326 326 326 325 326 325 324 325 325 325 324 323 323 323 324 324 324 325 325 325 324 323 325 327 326 325 324 327 327 328 327 323 322 340 343 345 343
324 325 326 326 326 325 325 325 325 325 325 325 324 323 323 324 323 323 322 321 321 321 321 323 324 325 324 323 323 321 323 323 320 319 321 325 327 325 322 331 342 341 341
Wind_Speed
21 21 19 20 21 18 19 18 18 17 14 13 7 7 9 9 11 3 10 6 6 6 6 4 7 6 5 6 8 6 7 11 9 12 12 4 15 5 3 4 8 8 9
25 25 22 23 22 22 19 20 19 18 17 13 12 13 7 10 11 8 8 12 8 7 7 6 4 5 4 8 7 9 6 6 5 9 8 11 9 12 8 9 4 8 6
27 28 26 26 24 23 22 21 21 19 16 16 12 12 11 12 6 8 9 10 6 6 9 4 4 5 6 9 7 4 7 12 9 9 9 5 7 11 11 11 9 10 6
25 29 28 26 25 25 22 20 19 21 17 17 17 13 11 9 8 5 13 14 8 7 6 9 5 6 10 12 15 6 12 9 11 12 10 13 14 6 6 9 10 9 11
23 27 27 27 24 24 23 21 21 20 19 16 18 15 17 12 11 9 4 5 4 10 9 8 8 6 9 12 9 13 11 14 7 9 8 7 13 9 6 8 11 6 6
23 26 27 28 25 24 23 24 20 17 17 22 17 20 15 13 12 10 11 11 10 14 15 8 12 12 11 9 10 11 12 12 12 8 8 11 15 18 14 10 11 11 12
23 24 28 28 24 25 23 24 26 18 19 21 18 21 20 16 17 15 9 12 11 15 17 10 10 11 10 11 9 13 13 12 12 10 11 7 12 14 16 15 13 12 10
22 21 25 27 26 25 24 20 23 18 19 20 19 17 19 19 15 15 18 11 12 10 9 7 12 16 19 15 14 14 12 10 13 13 16 10 6 12 17 11 13 12 9
22 20 22 22 24 23 25 22 22 17 18 20 21 19 17 16 12 9 11 11 13 16 10 15 18 18 18 17 16 17 14 17 16 15 14 13 9 10 16 18 9 14 9
19 19 21 22 22 21 21 19 21 21 19 20 20 19 17 16 16 17 17 15 15 14 18 18 17 17 19 17 17 18 16 15 16 16 12 16 15 17 13 13 13 15 8
22 24 21 22 20 19 20 20 21 19 17 17 16 16 15 15 14 15 18 18 18 18 20 20 20 20 20 20 20 20 21 20 19 20 21 22 20 18 16 12 12 12 13
14 34 20 22 18 21 21 20 18 20 14 12 14 15 12 10 9 11 11 11 14 16 17 17 17 18 18 19 19 19 19 20 19 18 18 18 20 20 19 15 10 13 16
21 31 22 18 14 18 15 13 13 13 12 13 15 12 15 17 20 19 17 16 15 15 16 15 15 18 18 18 17 17 17 17 17 18 20 20 22 21 19 15 9 18 17
21 20 20 20 18 18 18 18 15 14 10 9 10 11 11 10 9 9 11 10 8 7 8 11 14 14 15 15 16 14 14 15 18 18 19 19 22 23 20 18 19 13 20
15 16 17 16 14 16 16 16 15 14 16 16 14 9 11 10 6 10 13 12 12 13 12 13 11 10 10 12 15 15 14 17 19 20 19 20 21 22 21 18 18 20 15
16 15 16 19 20 18 15 17 18 15 15 15 15 15 13 12 12 5 3 3 1 3 4 6 8 11 9 13 15 19 21 20 20 21 22 23 23 24 26 25 22 25 20
17 17 17 17 17 16 12 12 13 12 10 9 8 5 8 11 9 21 8 10 9 10 11 10 11 12 12 13 14 16 19 21 22 22 21 21 20 23 25 24 20 23 22
18 16 15 13 12 13 10 8 6 4 5 4 4 4 3 13 9 19 17 17 20 20 22 22 20 21 22 22 23 26 28 29 28 23 20 20 18 23 26 29 24 21 22
16 14 12 12 11 8 7 4 3 1 3 2 7 9 10 10 14 18 20 22 26 27 28 28 28 28 29 31 33 34 34 35 35 32 27 18 19 21 24 29 22 23 22
13 12 11 10 7 6 3 2 1 2 4 6 9 13 17 19 22 24 25 26 27 29 30 31 30 31 33 34 35 35 35 35 33 32 21 17 22 19 24 26 26 23 22
11 8 7 5 4 1 2 3 5 6 11 15 18 20 21 23 24 24 26 29 31 33 35 36 36 35 34 33 31 27 24 25 25 26 27 25 28 22 21 25 28 23 22
8 5 4 2 1 3 5 6 7 10 14 17 19 21 23 24 25 28 30 32 32 32 33 33 32 31 27 24 20 19 21 23 26 27 27 28 24 17 21 24 27 28 22
5 2 1 2 3 4 6 8 10 14 15 17 20 21 24 26 27 27 27 28 27 27 28 28 28 28 26 26 25 25 25 24 28 25 23 20 12 14 18 22 26 30 26
1 3 4 4 6 7 9 11 13 15 18 20 21 22 23 23 23 25 25 26 26 27 27 27 25 23 21 18 20 18 16 12 15 15 11 15 19 26 20 20 24 30 32
3 4 6 8 9 11 12 13 16 18 20 22 23 23 22 22 27 27 26 29 32 27 29 27 28 32 35 38 37 24 28 23 25 23 24 19 19 21 22 22 26 32 36
5 6 8 9 11 13 14 16 17 17 20 20 21 23 24 25 27 28 30 30 29 28 30 37 30 25 31 34 32 36 45 44 41 35 32 24 24 24 24 24 28 32 32
Wind_Direction
187 178 184 178 171 177 177 182 177 193 191 204 192 185 205 219 241 237 222 274 289 296 310 279 227 330 286 322 329 10 328 355 342 358 359 41 65 239 189 326 9 348 344
182 177 184 179 178 184 188 189 188 206 196 190 197 215 228 237 240 235 221 253 230 253 263 268 299 294 328 311 313 326 349 312 346 341 3 12 21 45 3 339 329 312 356
185 178 180 182 183 187 192 203 195 210 205 188 212 232 217 226 225 226 228 246 253 260 265 274 286 302 310 306 238 247 324 334 4 349 341 360 12 354 349 325 298 303 309
185 175 178 187 188 189 197 206 213 206 221 194 198 215 227 220 231 229 247 247 241 246 241 273 300 326 308 294 319 17 332 326 339 341 338 348 332 324 343 7 323 307 305
181 176 183 187 197 196 197 205 221 221 209 226 204 216 223 223 240 229 231 215 201 265 246 240 267 287 305 303 324 306 313 330 320 307 332 329 334 268 223 1 349 317 300
176 178 182 186 196 199 200 204 216 227 218 219 218 203 226 221 215 225 244 245 267 267 272 238 240 264 278 287 288 284 299 311 313 320 332 323 326 316 328 21 339 325 273
173 176 176 184 193 202 200 206 204 221 228 217 222 212 212 226 220 229 222 243 256 271 273 256 250 289 276 284 275 286 298 313 313 318 323 313 312 311 334 322 306 309 289
168 176 180 186 192 202 203 202 204 224 227 216 218 220 220 227 232 225 231 229 256 269 300 248 268 283 288 273 274 284 299 306 307 301 308 311 338 307 321 312 327 304 309
165 177 181 186 190 198 199 201 209 225 219 213 218 223 225 225 225 227 259 257 242 248 272 266 273 282 280 278 283 277 286 288 294 301 304 308 304 317 306 313 298 293 289
167 172 179 182 188 193 197 202 211 226 226 217 219 221 225 228 222 219 221 227 232 237 248 259 263 270 280 282 278 278 276 285 287 281 280 283 278 269 276 294 288 280 289
177 175 181 184 190 188 196 197 200 209 221 220 224 226 232 235 244 242 240 248 253 254 257 265 270 274 276 275 275 277 278 277 275 278 278 283 284 283 278 273 299 316 302
229 160 158 175 186 195 191 190 193 199 207 207 208 229 234 240 258 269 268 261 259 262 269 278 281 281 281 280 277 277 281 281 276 277 281 280 282 281 290 294 278 283 282
62 69 92 95 101 99 112 113 144 159 170 181 198 188 199 205 215 214 221 242 258 263 268 261 270 283 287 288 287 284 286 290 292 289 278 269 271 275 276 283 269 312 287
74 78 81 91 97 106 109 119 134 150 145 149 168 179 203 212 216 208 222 234 245 258 278 283 288 286 286 291 299 304 306 297 293 288 286 282 268 272 280 284 268 275 253
89 84 83 88 90 92 94 91 107 123 149 160 145 119 153 169 187 208 229 232 241 244 237 243 245 264 283 283 283 282 285 288 294 293 289 286 285 284 278 272 272 278 274
114 108 102 95 94 96 94 104 103 103 103 81 74 77 82 65 34 16 34 327 281 259 258 258 258 249 230 266 276 275 283 288 290 288 289 280 282 280 278 272 270 268 267
128 124 118 114 109 104 105 107 106 94 88 89 99 73 7 333 30 309 328 318 326 315 308 304 304 298 289 285 288 294 298 300 301 300 294 289 272 274 274 271 267 263 265
137 136 131 128 132 134 127 123 120 119 107 87 31 328 276 250 233 289 305 309 305 305 305 302 298 292 289 292 294 298 301 302 304 302 299 288 293 278 275 276 271 251 258
143 139 137 132 132 124 128 114 76 315 258 244 265 274 292 291 281 288 301 300 298 299 299 298 298 298 294 296 300 300 300 301 301 299 299 290 281 281 271 274 272 247 249
143 144 147 142 126 118 119 122 96 263 294 284 288 293 302 306 307 309 306 302 300 299 298 295 293 291 290 291 293 295 295 294 293 295 301 277 262 262 270 265 270 243 242
147 149 146 141 136 106 284 322 303 298 288 292 299 303 306 305 306 306 302 301 299 295 293 293 293 292 292 292 291 292 291 290 292 300 305 302 279 264 260 263 260 262 240
148 144 150 151 328 315 317 309 306 292 293 298 301 303 305 305 303 302 301 301 302 301 300 299 300 303 304 304 299 291 285 289 289 293 300 302 293 275 246 254 258 238 218
150 175 237 274 293 301 311 307 300 304 306 304 306 305 305 306 308 309 309 305 301 295 294 293 294 296 297 295 292 290 285 279 269 276 290 291 289 280 258 245 248 227 214
194 276 293 303 312 307 306 309 309 306 303 305 307 307 309 316 315 312 305 299 296 294 294 294 295 297 301 305 299 275 274 282 270 280 276 297 294 309 294 248 234 218 218
279 302 318 318 312 310 305 304 304 307 308 308 313 320 316 308 304 307 298 291 281 284 296 294 293 293 294 288 282 273 288 282 287 282 288 284 288 299 288 257 240 234 224
310 320 311 306 303 305 308 310 297 295 298 300 306 302 305 307 306 306 306 305 295 290 291 279 283 294 283 284 294 282 274 282 290 289 287 284 281 286 283 265 246 239 234